Morris, IL

6:22 PM CDT on April 26, 2018 (GMT -0500)
Morris

Weather History for KC09 - February, 2013

Change the Weather History Date:

Tuesday, February 19, 2013

  Actual Average (KARR) Record (KARR)
Temperature  
Mean Temperature 20 °F -  
Max Temperature 28 °F 35 °F 68 °F (2017)
Min Temperature 11 °F 20 °F -13 °F (2015)
Degree Days  
Heating Degree Days 46    
Moisture  
Dew Point 11 °F    
Average Humidity 76    
Maximum Humidity 83    
Minimum Humidity 70    
Precipitation  
Precipitation 0.16 in - - ()
Sea Level Pressure  
Sea Level Pressure 29.93 in    
Wind  
Wind Speed 27 mph (WNW)    
Max Wind Speed 34 mph    
Max Gust Speed 44 mph    
Visibility 8 miles    
Events Snow    
Averages and records for this station are not official NWS values.
T = Trace of Precipitation, MM = Missing Value Source: NWS Daily Summary

Daily Weather History Graph

Daily Weather History Graph

Search for Another Location

Airport or City:

Astronomy

Feb. 19, 2013 Rise Set
Actual Time 6:42 AM CST 5:32 PM CST
Civil Twilight 6:14 AM CST 6:00 PM CST
Nautical Twilight 5:42 AM CST 6:33 PM CST
Astronomical Twilight 5:10 AM CST 7:05 PM CST
Moon 12:01 PM CST (2/19) 2:16 AM CST (2/19)
Length of Visible Light 11h 46m
Length of Day
10h 49m
Waxing Gibbous, 67% of the Moon is Illuminated
Feb 19
Waxing Gibbous
Feb 25
Full
Mar 4
Last Quarter
Mar 11
New
Mar 19
First Quarter

Hourly Weather History & Observations

Time (CST) Temp. Windchill Dew Point Humidity Pressure Visibility Wind Dir Wind Speed Gust Speed Precip Events Conditions
12:15 AM 28.4 °F 13.3 °F 23.0 °F 80% 29.64 in 10.0 mi West 27.6 mph 35.7 mph N/A   Overcast
12:35 AM 26.8 °F 9.6 °F 22.1 °F 83% 29.65 in 10.0 mi West 34.5 mph 41.4 mph N/A   Overcast
12:55 AM 26.6 °F 10.3 °F 21.2 °F 80% 29.66 in 10.0 mi West 29.9 mph 39.1 mph N/A   Overcast
1:15 AM 25.2 °F 7.3 °F 20.1 °F 81% 29.67 in 10.0 mi West 34.5 mph 42.6 mph N/A   Overcast
1:35 AM 24.6 °F 7.9 °F 19.8 °F 82% 29.68 in 10.0 mi West 28.8 mph 38.0 mph N/A   Overcast
1:55 AM 24.3 °F 7.4 °F 19.4 °F 82% 29.70 in 10.0 mi West 28.8 mph 34.5 mph N/A   Overcast
2:15 AM 23.0 °F 4.9 °F 18.1 °F 82% 29.71 in 10.0 mi West 32.2 mph 39.1 mph N/A   Overcast
2:35 AM 22.1 °F 4.5 °F 16.7 °F 80% 29.71 in 10.0 mi West 28.8 mph 38.0 mph N/A   Overcast
2:55 AM 21.7 °F 2.9 °F 16.0 °F 78% 29.72 in 10.0 mi West 33.4 mph 43.7 mph N/A   Overcast
3:15 AM 21.2 °F 3.9 °F 15.8 °F 80% 29.73 in 10.0 mi West 26.5 mph 41.4 mph N/A Snow Light Snow
3:35 AM 21.0 °F 3.3 °F 15.8 °F 80% 29.73 in 5.0 mi West 27.6 mph 34.5 mph N/A Snow Light Snow
3:55 AM 20.8 °F 3.7 °F 15.6 °F 80% 29.74 in 7.0 mi West 25.3 mph 35.7 mph N/A Snow Light Snow
4:15 AM 19.4 °F 0.8 °F 13.3 °F 77% 29.75 in 10.0 mi West 28.8 mph 35.7 mph N/A Snow Light Snow
4:35 AM 19.4 °F 1.1 °F 13.5 °F 78% 29.76 in 7.0 mi West 27.6 mph 35.7 mph N/A Snow Light Snow
4:55 AM 18.5 °F 0.2 °F 12.7 °F 78% 29.76 in 7.0 mi West 26.5 mph 34.5 mph N/A Snow Light Snow
5:15 AM 18.1 °F 0.1 °F 11.5 °F 75% 29.76 in 10.0 mi West 25.3 mph 34.5 mph N/A Snow Light Snow
5:35 AM 17.6 °F -1.3 °F 10.9 °F 75% 29.77 in 10.0 mi West 27.6 mph 38.0 mph N/A Snow Light Snow
5:55 AM 17.4 °F -2.2 °F 11.1 °F 76% 29.78 in 7.0 mi West 29.9 mph 35.7 mph N/A Snow Light Snow
6:15 AM 17.6 °F 0.5 °F 12.2 °F 79% 29.79 in 4.0 mi West 21.9 mph 31.1 mph N/A Snow Light Snow
6:35 AM 15.8 °F -4.1 °F 10.4 °F 79% 29.79 in 10.0 mi West 28.8 mph 35.7 mph N/A Snow Light Snow
6:55 AM 15.4 °F -3.2 °F 9.5 °F 77% 29.81 in 10.0 mi West 24.2 mph 35.7 mph N/A   Overcast
7:15 AM 14.9 °F -5.6 °F 8.6 °F 76% 29.82 in 10.0 mi West 29.9 mph 36.8 mph N/A   Overcast
7:35 AM 14.9 °F -5.6 °F 8.6 °F 76% 29.83 in 10.0 mi West 29.9 mph 38.0 mph N/A   Overcast
7:55 AM 14.7 °F -6.7 °F 7.7 °F 74% 29.84 in 10.0 mi West 33.4 mph 40.3 mph N/A   Overcast
8:15 AM 15.4 °F -4.5 °F 9.7 °F 78% 29.85 in 7.0 mi West 28.8 mph 38.0 mph N/A   Overcast
8:35 AM 15.3 °F -3.8 °F 9.1 °F 77% 29.85 in 4.0 mi West 25.3 mph 35.7 mph N/A Snow Light Snow
8:55 AM 14.9 °F -5.6 °F 9.5 °F 79% 29.86 in 1.5 mi West 29.9 mph 35.7 mph N/A Snow Light Snow
9:15 AM 14.7 °F -5.8 °F 8.1 °F 75% 29.87 in 5.0 mi West 29.9 mph 39.1 mph N/A Snow Light Snow
9:35 AM 14.2 °F -6.9 °F 7.2 °F 74% 29.89 in 10.0 mi West 31.1 mph 36.8 mph N/A   Overcast
9:55 AM 15.3 °F -5.4 °F 9.0 °F 76% 29.90 in 5.0 mi West 31.1 mph 36.8 mph N/A   Haze
10:15 AM 15.1 °F -5.7 °F 7.7 °F 73% 29.91 in 10.0 mi West 31.1 mph 39.1 mph N/A   Overcast
10:35 AM 14.4 °F -5.7 °F 7.0 °F 73% 29.92 in 7.0 mi West 27.6 mph 38.0 mph N/A   Overcast
10:55 AM 14.4 °F -6.6 °F 7.0 °F 73% 29.92 in 7.0 mi West 31.1 mph 38.0 mph N/A   Overcast
11:15 AM 14.5 °F -5.8 °F 7.3 °F 73% 29.93 in 7.0 mi West 28.8 mph 39.1 mph N/A   Overcast
11:35 AM 15.1 °F -4.7 °F 7.9 °F 73% 29.94 in 5.0 mi West 27.6 mph 38.0 mph N/A   Haze
11:55 AM 14.9 °F -4.9 °F 7.9 °F 74% 29.94 in 7.0 mi WNW 27.6 mph 39.1 mph N/A   Overcast
12:15 PM 15.3 °F -4.8 °F 8.4 °F 74% 29.94 in 7.0 mi West 28.8 mph 35.7 mph N/A   Overcast
12:35 PM 15.4 °F -5.7 °F 7.9 °F 72% 29.94 in 10.0 mi West 33.4 mph 39.1 mph N/A   Overcast
12:55 PM 15.4 °F -5.2 °F 8.4 °F 74% 29.95 in 4.0 mi West 31.1 mph 38.0 mph N/A   Haze
1:15 PM 15.8 °F -3.1 °F 8.8 °F 74% 29.96 in 7.0 mi West 25.3 mph 39.1 mph N/A   Overcast
1:35 PM 15.8 °F -3.4 °F 8.6 °F 73% 29.97 in 5.0 mi West 26.5 mph 38.0 mph N/A   Haze
1:55 PM 16.2 °F -3.2 °F 9.3 °F 74% 29.97 in 5.0 mi West 27.6 mph 33.4 mph N/A Snow Light Snow
2:15 PM 16.5 °F -2.4 °F 9.7 °F 74% 29.98 in 5.0 mi WNW 26.5 mph 35.7 mph N/A   Haze
2:35 PM 16.9 °F -2.3 °F 9.9 °F 74% 29.99 in 7.0 mi West 27.6 mph 35.7 mph N/A   Overcast
2:55 PM 17.2 °F -0.4 °F 10.2 °F 74% 30.00 in 5.0 mi West 23.0 mph 31.1 mph N/A Snow Light Snow
3:15 PM 17.4 °F -2.2 °F 10.0 °F 73% 30.00 in 10.0 mi WNW 29.9 mph 36.8 mph N/A   Overcast
3:35 PM 17.6 °F -1.3 °F 10.6 °F 74% 30.01 in 7.0 mi West 27.6 mph 35.7 mph N/A Snow Light Snow
3:55 PM 17.8 °F -1.7 °F 10.6 °F 73% 30.02 in 5.0 mi WNW 29.9 mph - N/A Snow Light Snow
4:15 PM 17.6 °F -1.0 °F 10.6 °F 74% 30.03 in 7.0 mi West 26.5 mph 33.4 mph N/A Snow Light Snow
4:35 PM 18.1 °F 2.4 °F 11.5 °F 75% 30.04 in 10.0 mi WNW 18.4 mph 28.8 mph N/A Snow Light Snow
4:55 PM 18.3 °F 1.4 °F 11.3 °F 74% 30.04 in 10.0 mi West 21.9 mph 29.9 mph N/A   Overcast
5:15 PM 18.3 °F 1.4 °F 11.7 °F 75% 30.05 in 10.0 mi WNW 21.9 mph 26.5 mph N/A Snow Light Snow
6:15 PM 17.6 °F 1.3 °F 12.2 °F 79% 30.08 in 10.0 mi WNW 19.6 mph 27.6 mph N/A   Mostly Cloudy
6:35 PM 18.0 °F 1.3 °F 10.4 °F 72% 30.09 in 10.0 mi WNW 20.7 mph 32.2 mph N/A   Mostly Cloudy
6:55 PM 17.4 °F 2.4 °F 11.3 °F 77% 30.10 in 10.0 mi WNW 16.1 mph 21.9 mph N/A Snow Light Snow
7:15 PM 16.7 °F -0.3 °F 9.9 °F 74% 30.10 in 10.0 mi WNW 20.7 mph 26.5 mph N/A   Mostly Cloudy
7:35 PM 16.5 °F -0.6 °F 9.3 °F 73% 30.11 in 10.0 mi WNW 20.7 mph 28.8 mph N/A   Scattered Clouds
7:55 PM 16.2 °F -0.2 °F 9.3 °F 74% 30.12 in 10.0 mi WNW 18.4 mph - N/A   Scattered Clouds
8:15 PM 15.8 °F -2.7 °F 8.8 °F 74% 30.12 in 10.0 mi WNW 24.2 mph 27.6 mph N/A   Mostly Cloudy
8:35 PM 15.4 °F -1.6 °F 8.2 °F 73% 30.13 in 10.0 mi NW 19.6 mph 26.5 mph N/A   Mostly Cloudy
8:55 PM 15.1 °F -1.1 °F 8.2 °F 74% 30.14 in 10.0 mi WNW 17.3 mph 31.1 mph N/A   Mostly Cloudy
9:15 PM 14.7 °F 0.1 °F 7.5 °F 73% 30.15 in 10.0 mi NW 13.8 mph 27.6 mph N/A   Mostly Cloudy
9:35 PM 14.5 °F -1.3 °F 7.3 °F 73% 30.16 in 10.0 mi NW 16.1 mph 20.7 mph N/A   Mostly Cloudy
9:55 PM 14.5 °F 0.5 °F 8.2 °F 76% 30.17 in 10.0 mi NW 12.7 mph 19.6 mph N/A Snow Light Snow
10:15 PM 13.1 °F 0.9 °F 5.0 °F 70% 30.17 in 10.0 mi NW 9.2 mph 18.4 mph N/A   Scattered Clouds
10:35 PM 12.6 °F -1.4 °F 4.5 °F 70% 30.18 in 10.0 mi NW 11.5 mph 21.9 mph N/A   Clear
10:55 PM 11.8 °F -5.3 °F 4.1 °F 71% 30.18 in 10.0 mi NW 17.3 mph - N/A   Clear
11:15 PM 11.7 °F -3.8 °F 4.5 °F 73% 30.19 in 10.0 mi NW 13.8 mph 19.6 mph N/A   Clear
11:35 PM 11.3 °F -4.3 °F 4.3 °F 73% 30.20 in 10.0 mi NW 13.8 mph 21.9 mph N/A   Clear
11:55 PM 11.1 °F -6.7 °F 4.1 °F 73% 30.21 in 10.0 mi WNW 18.4 mph - N/A   Clear